EW2593 Weather Reports


Display with metric or nautical units.
time (UTC)temp
F
wind
direction
speed
MPH
gust
MPH
rain 1hr
in
rain 24hr
in
rain mn
in
humidity
%
barometer
mb
20260507024534 60 360 4.0 10.0 0.00 0.00 0.00 34 1014.6
20260507023022 61 360 4.0 12.0 0.00 0.00 0.00 33 1014.3
20260507021502 62 20 7.0 13.0 0.00 0.00 0.00 32 1014.2
20260507020004 63 360 5.0 14.0 0.00 0.00 0.00 31 1014.1
20260507014502 65 33 8.0 17.0 0.00 0.00 0.00 30 1014.0
20260507013101 66 360 6.0 14.0 0.00 0.00 0.00 29 1013.8
20260507011523 67 10 6.0 16.0 0.00 0.00 0.00 28 1013.7
20260507010023 70 34 6.0 14.0 0.00 0.00 0.00 26 1013.9
20260507004511 71 33 5.0 11.0 0.00 0.00 0.00 24 1013.8
20260507003001 71 323 3.0 11.0 0.00 0.00 0.00 23 1013.9
20260507001509 72 360 4.0 9.0 0.00 0.00 0.00 23 1013.9
20260507000121 72 305 2.0 7.0 0.00 0.00 0.00 23 1014.0
20260506234509 74 57 3.0 11.0 0.00 0.00 0.00 22 1013.8
20260506233019 73 289 4.0 10.0 0.00 0.00 0.00 22 1014.1
20260506231556 74 232 5.0 10.0 0.00 0.00 0.00 22 1014.0
20260506230010 73 30 4.0 11.0 0.00 0.00 0.00 22 1014.0
20260506224523 71 247 3.0 8.0 0.00 0.00 0.00 23 1014.2
20260506223105 72 257 3.0 9.0 0.00 0.00 0.00 22 1014.4
20260506221508 70 109 5.0 12.0 0.00 0.00 0.00 24 1014.8
20260506220106 71 103 2.0 11.0 0.00 0.00 0.00 23 1014.9
20260506214603 70 92 7.0 13.0 0.00 0.00 0.00 23 1015.2
20260506213021 72 308 1.0 12.0 0.00 0.00 0.00 20 1015.4
20260506211537 73 188 0.0 8.0 0.00 0.00 0.00 22 1015.6
20260506210002 72 126 5.0 12.0 0.00 0.00 0.00 22 1015.8
20260506204553 72 123 1.0 10.0 0.00 0.00 0.00 22 1015.9
20260506203115 71 148 1.0 10.0 0.00 0.00 0.00 23 1016.2
20260506201512 70 89 2.0 12.0 0.00 0.00 0.00 24 1016.3
20260506200057 69 52 5.0 11.0 0.00 0.00 0.00 25 1016.2
20260506194504 67 19 3.0 15.0 0.00 0.00 0.00 26 1016.3
20260506193033 67 360 9.0 21.0 0.00 0.00 0.00 26 1016.6
20260506191606 66 51 5.0 17.0 0.00 0.00 0.00 26 1016.6
20260506190008 66 31 4.0 14.0 0.00 0.00 0.00 26 1016.6
20260506184502 66 360 5.0 13.0 0.00 0.00 0.00 26 1016.7
20260506183112 66 59 5.0 12.0 0.00 0.00 0.00 25 1016.8
20260506181604 66 65 7.0 12.0 0.00 0.00 0.00 25 1016.8
20260506180055 65 90 3.0 10.0 0.00 0.00 0.00 28 1017.2
20260506174605 65 49 5.0 11.0 0.00 0.00 0.00 28 1017.0
20260506173001 63 70 2.0 6.0 0.00 0.00 0.00 31 1017.1
20260506171557 62 36 2.0 8.0 0.00 0.00 0.00 32 1017.0
20260506170109 60 16 3.0 10.0 0.00 0.00 0.00 32 1016.9
20260506164502 59 287 3.0 8.0 0.00 0.00 0.00 34 1017.0
20260506163001 58 360 1.0 9.0 0.00 0.00 0.00 36 1017.1
20260506161507 57 138 1.0 8.0 0.00 0.00 0.00 37 1016.9
20260506160029 55 252 1.0 7.0 0.00 0.00 0.00 38 1017.0
20260506154533 54 53 2.0 7.0 0.00 0.00 0.00 39 1017.0
20260506153020 52 335 1.0 4.0 0.00 0.00 0.00 42 1016.9
20260506151508 51 236 2.0 4.0 0.00 0.00 0.00 42 1016.8
20260506150026 49 51 2.0 6.0 0.00 0.00 0.00 46 1016.8
20260506144515 47 32 1.0 5.0 0.00 0.00 0.00 50 1016.6
20260506143106 45 37 0.0 4.0 0.00 0.00 0.00 53 1016.6
20260506141528 44 215 0.0 2.0 0.00 0.00 0.00 57 1016.6
20260506140124 43 215 0.0 1.0 0.00 0.00 0.00 60 1016.4
20260506134602 42 215 0.0 0.0 0.00 0.00 0.00 61 1016.3
20260506133030 41 215 0.0 3.0 0.00 0.00 0.00 64 1016.2
20260506131655 40 215 1.0 4.0 0.00 0.00 0.00 67 1016.1
20260506130120 39 223 0.0 3.0 0.00 0.00 0.00 67 1015.8
20260506124553 40 221 0.0 0.0 0.00 0.00 0.00 64 1015.8
20260506123019 41 222 0.0 2.0 0.00 0.00 0.00 64 1015.5
20260506121558 41 221 0.0 2.0 0.00 0.00 0.00 63 1015.3
20260506120012 41 223 0.0 4.0 0.00 0.00 0.00 64 1015.3
20260506114509 40 14 0.0 0.0 0.00 0.00 0.00 63 1015.4
20260506113053 40 15 0.0 0.0 0.00 0.00 0.00 64 1015.4
20260506111525 39 15 0.0 0.0 0.00 0.00 0.00 65 1015.1
20260506110001 39 17 0.0 1.0 0.00 0.00 0.00 63 1015.0
20260506104637 40 22 0.0 2.0 0.00 0.00 0.00 61 1014.8
20260506103006 41 267 0.0 3.0 0.00 0.00 0.00 61 1014.5
20260506101523 41 226 0.0 4.0 0.00 0.00 0.00 61 1014.6
20260506100013 41 289 0.0 2.0 0.00 0.00 0.00 60 1014.6
20260506094509 41 290 0.0 3.0 0.00 0.00 0.00 60 1014.8
20260506093052 41 349 0.0 3.0 0.00 0.00 0.00 59 1014.7
20260506091556 41 295 0.0 4.0 0.00 0.00 0.00 60 1014.4
20260506090002 41 273 1.0 4.0 0.00 0.00 0.00 61 1014.3
20260506084520 40 237 0.0 3.0 0.00 0.00 0.00 61 1014.4
20260506083112 40 236 0.0 3.0 0.00 0.00 0.00 61 1014.4
20260506081603 40 142 0.0 0.0 0.00 0.00 0.00 59 1014.3
20260506073102 40 176 0.0 0.0 0.00 0.00 0.00 60 1014.6
20260506071525 40 240 0.0 0.0 0.00 0.00 0.00 58 1014.3
20260506061521 41 247 0.0 2.0 0.00 0.00 0.00 56 1013.9
20260506044613 47 245 0.0 3.0 0.00 0.00 0.00 48 1013.1
20260506043014 47 248 2.0 3.0 0.00 0.00 0.00 48 1013.0
20260506041612 47 275 0.0 3.0 0.00 0.00 0.00 48 1012.8
20260506040005 47 275 1.0 4.0 0.00 0.00 0.00 47 1012.9
20260506034602 48 274 1.0 4.0 0.00 0.00 0.00 47 1012.5
20260506033008 48 267 1.0 5.0 0.00 0.00 0.00 46 1012.1
20260506031517 48 265 2.0 6.0 0.00 0.00 0.00 46 1011.8
20260506030023 49 271 1.0 4.0 0.00 0.00 0.00 45 1011.5